metlocid,date_time,avg_ppt,std_ppt,min_ppt,max_ppt,n_ppt,n_comments
BOYM,12/1/94,53.8560942,0.079382277,53.71,54,1910,1
BOYM,1/1/95,54.02043994,0.040987026,53.95,54.15,2226,3
BOYM,2/1/95,54.13377925,0.29624778,54,55.57,2016,0
BOYM,3/1/95,55.66830141,0.06422429,55.47,55.81,2232,0
BOYM,4/1/95,55.92926385,0.283976411,55.66,56.59,2160,0
BOYM,5/1/95,56.86375492,0.396641929,56.4,57.52,2232,0
BOYM,6/1/95,57.50419936,0.061748491,57.37,57.67,2160,0
BOYM,7/1/95,57.47653396,0.041138182,57.37,57.62,2080,0
BOYM,11/1/95,165.2059668,115.8372232,0,290.5,1725,0
BOYM,12/1/95,290.4147788,0.136993558,290,290.8,2976,0
BOYM,1/1/96,290.866357,7.554077218,0,291.7,2973,0
BOYM,2/1/96,291.3729835,0.148644192,291,291.5,2784,0
BOYM,3/1/96,292.1798399,0.787842572,291,294.4,2976,0
BOYM,4/1/96,292.9468125,0.258489289,292.5,293.5,2880,0
BOYM,5/1/96,293.1056529,0.355575869,292.5,293.9,2976,0
BOYM,6/1/96,294.6643094,0.369546333,293.7,296.1,2880,0
BOYM,7/1/96,294.9377712,0.360185123,294.2,295.8,2976,0
BOYM,8/1/96,295.9303782,0.752997849,295.2,297.5,2976,0
BOYM,9/1/96,296.5570821,0.179165487,296.1,297.1,2880,0
BOYM,10/1/96,296.9482543,0.223637841,296.4,297.4,2976,0
BOYM,11/1/96,297.4079229,0.454208011,296.4,298.1,2878,0
BOYM,12/1/96,298.1501364,0.086919747,297.9,298.5,2976,0
BOYM,1/1/97,298.4595402,0.186946434,298.1,298.8,2976,0
BOYM,2/1/97,298.5926316,0.182027473,298.3,299.1,2661,0
BOYM,3/1/97,298.569219,0.220697896,298.3,299.4,2976,0
BOYM,4/1/97,299.5237994,0.225336919,298.8,300.3,2853,0
BOYM,5/1/97,300.6262051,0.546239315,299.6,302.1,2976,0
BOYM,6/1/97,301.3633302,0.232156635,301,301.9,2880,0
BOYM,7/1/97,301.8865646,0.339061287,301.3,302.7,2948,0
BOYM,8/1/97,303.1099485,0.936411679,301,304.7,2976,0
BOYM,9/1/97,306.3843056,1.460099729,303.5,308.1,2880,0
BOYM,10/1/97,307.983062,0.193774287,307.4,308.7,2976,0
BOYM,11/1/97,308.0792534,10.40174803,0,309.1,2637,0
BOYM,1/1/98,312.5312348,0.337136423,312,313.3,1591,3
BOYM,2/1/98,314.6888407,1.577192571,313,317.3,2688,0
BOYM,3/1/98,317.7913971,1.166340641,316.9,320.8,2976,0
BOYM,4/1/98,321.4661059,1.159353169,320.3,324.4,2880,0
BOYM,5/1/98,323.2044357,0.369085677,322.5,324.4,2976,0
BOYM,6/1/98,323.7261166,0.266683018,323,324.6,2880,0
BOYM,7/1/98,323.8317267,0.168473627,323.5,324.3,725,0
BOYM,11/1/98,328.5527591,0.086425666,328.4,328.7,1778,0
BOYM,12/1/98,328.6336071,0.095474949,328.4,329.1,2976,0
BOYM,1/1/99,329.1256654,0.260517223,328.6,329.6,2976,0
BOYM,2/1/99,329.2471656,0.098924113,328.9,329.6,2688,0
BOYM,3/1/99,329.5477097,0.321297263,329.3,330.3,2976,0
BOYM,4/1/99,331.1166641,0.875126859,330.3,333.5,2880,0
BOYM,5/1/99,332.9911247,0.365543971,332.5,334.1,2976,0
BOYM,6/1/99,333.4252729,0.207271639,333,334.1,2880,0
BOYM,7/1/99,333.5271472,0.232120857,333,334.2,2976,0
BOYM,8/1/99,333.6899227,0.343655445,333,334.5,2976,0
BOYM,9/1/99,334.8302812,0.337037708,334,335.6,2880,0
BOYM,10/1/99,335.4926118,0.3907291,334.7,337.3,2976,0
BOYM,11/1/99,335.822921,0.17150744,334.4,336.4,2880,0
BOYM,12/1/99,335.7546951,0.093945953,335.5,336.2,2975,0
BOYM,1/1/00,247.5483147,20.17902637,242.2,335.8,2972,5
BOYM,2/1/00,242.0872091,0.283086435,241.5,242.7,2784,0
BOYM,3/1/00,242.645159,1.279381234,241.5,245.5,2976,0
BOYM,4/1/00,244.2661655,0.333266263,243.7,245,2861,19
BOYM,5/1/00,244.3482536,0.332283761,243.7,245.4,2976,0
BOYM,6/1/00,244.6734692,0.364342457,244.4,245.7,2880,0
BOYM,7/1/00,244.8709684,0.458030268,244.4,252.2,2976,0
BOYM,8/1/00,245.0783596,0.373006871,244.6,246.6,2976,0
BOYM,9/1/00,245.3694443,1.0189371,244.4,248.6,2880,0
BOYM,10/1/00,246.6043183,0.207936116,246.3,247.4,2550,0
BOYM,11/1/00,246.7740769,0.151002626,246.6,247.2,1296,4
BOYM,12/1/00,246.7993312,0.155869091,246.6,247.2,2976,0
BOYM,1/1/01,246.9772884,0.210149515,246.6,247.6,2976,0
BOYM,2/1/01,246.8370574,0.218895871,246.3,247.4,2688,0
BOYM,3/1/01,246.3048428,0.447802657,245.8,247.7,2976,0
BOYM,4/1/01,248.4472241,0.813376464,246.6,250,2880,0
BOYM,5/1/01,248.7229849,0.413579132,248,249.9,2976,0
BOYM,6/1/01,248.3233344,0.289656935,247.8,249.3,2880,0
BOYM,7/1/01,248.1014802,0.352676116,247.6,249.8,2976,0
BOYM,8/1/01,248.7576632,1.284933351,247.3,251.3,2976,0
BOYM,9/1/01,249.6072232,0.641898946,248.8,251.9,2880,0
BOYM,10/1/01,249.1819906,0.265579601,248.5,250,2976,0
BOYM,11/1/01,249.2731958,0.143651714,248.8,249.6,2880,0
BOYM,12/1/01,249.3403242,0.092836983,249,249.8,2976,0
BOYM,1/1/02,249.3196517,0.159994138,249,251.1,2972,4
BOYM,2/1/02,249.1973232,0.198899906,248.7,249.8,2688,0
BOYM,3/1/02,249.2052427,0.714873135,248.5,255.1,2976,0
BOYM,4/1/02,250.2347219,0.361678828,249.8,251.7,2880,0
BOYM,5/1/02,251.6927403,0.635996457,250.2,254.3,2976,0
BOYM,6/1/02,251.8612487,0.369013511,251.5,254.2,2880,0
BOYM,7/1/02,251.8872296,0.345397095,251.5,253.4,2976,0
BOYM,8/1/02,252.0754013,0.364214174,251.5,255.3,2976,0
BOYM,9/1/02,253.856663,1.626596142,252,258,2880,0
BOYM,10/1/02,253.4516094,0.376768516,252.7,254.4,2976,0
BOYM,11/1/02,253.5512469,0.274919148,252.9,254.7,2880,0
BOYM,12/1/02,253.6965002,0.15203949,253.4,254.1,2974,2
BOYM,1/1/03,255.7194967,2.541005322,253.4,259.3,2954,22
BOYM,2/1/03,258.9081792,0.105139545,258.5,259.1,2688,0
BOYM,3/1/03,260.7198945,0.40664599,259,262.2,2976,0
BOYM,4/1/03,259.9620787,0.360415326,259.3,260.6,2880,0
BOYM,5/1/03,259.8758036,0.354078772,259.3,261,2976,0
BOYM,6/1/03,259.5623554,0.300953567,259,260.5,2880,0
BOYM,7/1/03,259.784996,0.229116299,259.5,260.3,240,2736
BOYM,8/1/03,,,,,0,2976
BOYM,9/1/03,283.4249979,4.86810522,277.6,295.6,1808,1072
BOYM,10/1/03,271.775805,2.150469889,270,277.9,2976,0
BOYM,11/1/03,269.8444376,0.150294621,269.5,270.4,2880,0
BOYM,12/1/03,270.5907229,0.207118082,269.8,271,2976,0
BOYM,1/1/04,396.4229203,57.69516423,270.5,436.5,2971,5
BOYM,2/1/04,435.6304557,0.368414499,435.1,436.5,2784,0
BOYM,3/1/04,436.6825233,1.243773701,435.8,440.6,2976,0
BOYM,4/1/04,439.9097266,0.320887297,439.5,440.7,2880,0
BOYM,5/1/04,440.7951641,0.708064575,439.7,442.4,2976,0
BOYM,6/1/04,448.4770849,4.209258606,441.2,452.4,2880,0
BOYM,7/1/04,451.426349,0.251175348,451.2,452.4,2976,0
BOYM,8/1/04,454.3309157,4.645873924,451.4,464.1,2976,0
BOYM,9/1/04,464.3622203,0.463720225,463.4,465.8,2880,0
BOYM,10/1/04,465.219079,0.240415385,464.6,466.1,2976,0
BOYM,11/1/04,465.2954096,0.175783749,464.7,465.9,2878,2
BOYM,12/1/04,464.7001344,0.678315216,463.6,466.6,2976,0
BOYM,1/1/05,466.4596727,0.223255604,466.1,467,2976,0
BOYM,2/1/05,466.4235091,0.67887251,465.8,468,2688,0
BOYM,3/1/05,467.7725757,0.28122276,467.3,468.7,2976,0
BOYM,4/1/05,468.2681929,0.740816531,467.5,470,2880,0
BOYM,5/1/05,470.1974502,0.333143087,469.5,471.4,2976,0
BOYM,6/1/05,472.9000014,2.414950713,470.5,477.7,2880,0
BOYM,7/1/05,476.9163932,1.565855788,476.3,486.6,2976,0
BOYM,8/1/05,486.3524177,0.554662465,484.9,487.6,2976,0
BOYM,9/1/05,486.7791653,0.293894282,486.3,488,2880,0
BOYM,10/1/05,487.0143785,0.196976421,486.6,487.6,2976,0
BOYM,11/1/05,487.0884758,0.103127119,486.8,487.5,2880,0
BOYM,12/1/05,487.2860219,0.215482711,486.8,487.6,2976,0
BOYM,1/1/06,486.7851788,15.46653297,0,487.5,2976,3
BOYM,2/1/06,487.7398833,1.656048258,486.8,493.4,2688,0
BOYM,3/1/06,495.4319871,1.154844478,492.7,497.6,2976,0
BOYM,4/1/06,498.2958314,0.746291386,497.1,499.5,2880,0
BOYM,5/1/06,499.4112858,0.456109534,498.8,500.6,2976,0
BOYM,6/1/06,504.5943053,2.165297437,500.2,507.3,2880,0
BOYM,7/1/06,507.1112869,0.648585832,506.3,508.6,2976,0
BOYM,8/1/06,508.3831954,0.205470072,508.1,509,2976,0
BOYM,9/1/06,509.4043016,0.58037483,508.5,511,2880,0
BOYM,10/1/06,510.9821264,0.224582037,510.3,511.5,2976,0
BOYM,11/1/06,512.7769595,0.69572227,511,513.6,2880,0
BOYM,12/1/06,513.1396632,0.147402565,512.9,513.4,2976,0
BOYM,1/1/07,488.4436802,59.83680249,0,513.4,2876,25
BOYM,2/1/07,415.1407715,1.432104327,413.8,419.7,2688,0
BOYM,3/1/07,419.8310545,0.328362057,419.2,420.7,2976,0
BOYM,4/1/07,420.4041682,0.389632905,419.9,421.8,2880,0
BOYM,5/1/07,420.871775,0.426308005,420.4,423.3,2976,0
BOYM,6/1/07,421.2233343,0.24478677,420.7,422.2,2880,0
BOYM,7/1/07,421.1166655,0.242322736,420.7,421.8,2976,0
BOYM,8/1/07,421.7469099,0.27686718,420.9,422.4,2976,0
BOYM,9/1/07,422.1615273,0.1994922,421.8,423,2880,0
BOYM,10/1/07,424.7320279,1.996001,422,428.5,2960,0
BOYM,11/1/07,428.2333416,0.124984622,428,428.5,537,0
BOYM,12/1/07,427.6207836,0.432071585,426.9,428.2,2974,0
BOYM,1/1/08,433.8896493,4.373363349,427,437.5,2976,0
BOYM,2/1/08,436.1887888,0.197766749,435.8,436.8,2784,0
BOYM,3/1/08,436.2048347,0.364181839,435.8,437.6,2976,0
BOYM,4/1/08,436.5616609,0.253362519,434.3,437.4,2880,0
BOYM,5/1/08,436.2833287,0.249915181,436,437,2976,0
BOYM,6/1/08,436.9579125,1.223664544,435.9,442.6,2880,0
BOYM,7/1/08,440.88508,0.44753765,440.2,442.3,2976,0
BOYM,8/1/08,441.5348131,0.329005572,440.8,442.6,2976,0
BOYM,9/1/08,442.8661089,0.727575031,441.4,445.4,2880,0
BOYM,10/1/08,444.096234,0.271615854,443.6,444.6,2976,0
BOYM,11/1/08,444.2904151,0.17924057,443.8,445.1,2880,0
BOYM,12/1/08,444.1430103,0.172625035,443.6,444.6,2976,0
BOYM,1/1/09,443.8557787,0.25280938,443.3,444.5,2976,0
BOYM,2/1/09,444.6976133,0.939460913,443.6,446.3,2688,0
BOYM,3/1/09,445.7969036,0.18187526,445.3,446.7,2976,0
BOYM,4/1/09,447.2599986,1.783604422,445.5,450.4,2880,0
BOYM,5/1/09,449.9286344,0.310831939,449.5,450.9,2976,0
BOYM,6/1/09,450.2209749,0.305813317,449.7,451.6,2880,0
BOYM,7/1/09,450.2944916,0.349727067,449.5,455.1,2976,0
BOYM,8/1/09,451.6622315,0.736276775,449.9,454.3,2976,0
BOYM,9/1/09,452.3095844,0.310033331,451.5,453.9,2880,0
BOYM,10/1/09,452.8837373,0.196688646,452.6,453.3,2976,0
BOYM,11/1/09,455.1299992,1.811088306,452.9,458,2880,0
BOYM,12/1/09,457.7304515,0.248545897,457.3,458.3,2975,0
BOYM,1/1/10,458.2227067,0.131622758,457.8,458.5,2976,0
BOYM,2/1/10,458.0776738,0.291256937,457.5,458.8,2688,0
BOYM,3/1/10,458.7088714,0.413592142,458.3,459.7,2976,0
BOYM,4/1/10,460.0566707,0.332446282,459.2,460.7,2880,0
BOYM,5/1/10,460.2069931,0.261457174,459.7,461,2976,0
BOYM,6/1/10,460.2005596,0.283233175,459.7,461.3,2880,0
BOYM,7/1/10,460.8012139,0.471762837,460,463.4,2976,0
BOYM,8/1/10,461.8942225,1.12090189,460.1,475.2,2976,4
BOYM,9/1/10,464.1341674,0.343446515,463.1,464.9,2880,0
BOYM,10/1/10,464.7469064,0.193654759,464.1,465.7,2976,0
BOYM,11/1/10,463.8311112,0.289837809,462.3,464.6,2880,0
BOYM,12/1/10,463.6290179,0.357576528,461.9,464.4,2974,2
BOYM,1/1/11,463.4023491,0.119780815,463.1,463.7,2976,0
BOYM,2/1/11,465.075523,2.444258211,463.4,469.7,2688,0
BOYM,3/1/11,470.3424461,0.25563005,469.2,471.2,2976,0
BOYM,4/1/11,472.1308038,1.156639338,470.2,473.9,2880,0
BOYM,5/1/11,473.3169343,0.322431536,472.9,474.1,2976,0
BOYM,6/1/11,473.789477,0.161152022,473.4,474.2,2880,0
BOYM,7/1/11,474.8462009,0.49856242,473.9,475.9,2976,0
BOYM,8/1/11,477.4216012,0.736743152,475.3,479.1,2976,0
BOYM,9/1/11,478.5881554,0.315187197,478,479.4,2880,0
BOYM,10/1/11,479.6595127,0.511401844,478.5,480.7,2976,0
BOYM,11/1/11,480.3214633,0.162079232,479.9,480.7,2880,0
BOYM,12/1/11,400.3643393,112.8123987,76.9,480.7,2975,0
BOYM,1/1/12,243.4950229,0.153160125,243.1,243.9,2976,0
BOYM,2/1/12,245.4883601,2.541904683,243.2,249.5,2784,0
BOYM,3/1/12,248.942508,0.280175964,248.5,250,2976,0
BOYM,4/1/12,249.2571542,0.342087439,248.8,250.4,2880,0
BOYM,5/1/12,251.4253009,0.885057739,249.3,253.3,2976,0
BOYM,6/1/12,254.0429859,1.602715513,251.4,256.5,2880,0
BOYM,7/1/12,256.4345433,1.606250996,255.1,259.1,2976,0
BOYM,8/1/12,264.4353488,8.33706846,258.3,282,2976,0
BOYM,9/1/12,275.5779167,0.883455182,274.7,278.6,2880,0
BOYM,10/1/12,275.4090727,0.206675499,274.9,275.9,2976,0
BOYM,11/1/12,275.8822561,0.17116072,275.4,276.2,2880,0
BOYM,12/1/12,276.6663887,0.94021757,275.9,278.6,2975,1
BOYM,1/1/13,280.9138452,5.586417094,278.1,294.7,2976,0
BOYM,2/1/13,294.3697968,0.329181829,293.9,295.9,2688,0
BOYM,3/1/13,296.118618,0.229553729,295.7,296.9,2976,0
BOYM,4/1/13,296.7609012,0.557907512,296.1,298.9,2880,0
BOYM,5/1/13,303.4721789,1.949665007,298.3,305.7,2976,0
BOYM,6/1/13,304.4072227,0.271314137,304,305.1,2880,0
BOYM,7/1/13,305.0011131,0.277433561,304.7,306,2976,0
BOYM,8/1/13,305.7299097,0.3915918,304.9,307.4,2976,0
BOYM,9/1/13,310.0582255,1.89083827,306,312.6,2880,0
BOYM,10/1/13,312.327822,0.42596558,300.2,313,2976,0
BOYM,11/1/13,312.9155242,0.184981464,312.5,313.5,2880,0
BOYM,12/1/13,313.2750716,0.196411924,312.9,313.8,2976,0
BOYM,1/1/14,313.5553474,0.1306967,313,314.1,2976,2395
BOYM,2/1/14,313.2841558,0.180065895,312.7,313.7,2688,2688
BOYM,3/1/14,314.5533627,0.768357739,313,315.7,2976,2976
BOYM,4/1/14,315.3828833,0.346666784,314.5,316.7,2880,2880
BOYM,5/1/14,315.6815889,0.321799326,314.9,316.6,2976,2976
BOYM,6/1/14,315.6611148,0.184505109,315.4,316.2,2880,2880
BOYM,7/1/14,315.5253046,0.3038705,315.2,316.8,2976,2976
BOYM,8/1/14,316.2418705,0.408729028,315.4,317.8,2976,2976
BOYM,9/1/14,316.6385764,0.198134775,316.1,317.2,2880,2880
BOYM,10/1/14,319.481517,1.472256226,316.4,321.7,2976,2976
BOYM,11/1/14,320.2404191,0.129830537,319.8,320.6,2872,2872
BOYM,12/1/14,320.4501987,0.143950532,320.1,320.6,2976,2976
BOYM,1/1/15,321.050571,0.45437563,320.3,321.8,2976,2976
BOYM,2/1/15,321.5206843,0.082548243,321,321.8,2688,2688
BOYM,3/1/15,321.5752654,0.163673464,321.3,322.4,2976,2976
BOYM,4/1/15,322.6947418,0.328157828,321.5,323.5,2360,2360
BOYM,5/1/15,323.1538316,0.265635428,322.5,324.3,2976,2976
BOYM,6/1/15,324.1536859,0.348977417,322.2,325.5,2880,2880
BOYM,7/1/15,332.0591724,4.610176654,324.5,340.6,2976,2976
BOYM,8/1/15,333.5646146,1.555986748,331.5,337.4,2976,2976
BOYM,9/1/15,334.869345,0.264459125,333.9,335.7,2720,2720
BOYM,10/1/15,335.3173736,0.120178054,334.5,336.5,2976,2976
BOYM,11/1/15,335.6108363,0.195858498,335,336.2,2871,2871
BOYM,12/1/15,337.7014796,2.158154936,335.4,340.6,2976,2976
BOYM,1/1/16,340.3638708,0.133184837,340,340.8,2976,2976
BOYM,2/1/16,340.5753527,0.770817412,339.8,342.5,2784,2784
BOYM,3/1/16,342.2628974,0.279052382,341.8,343.1,2976,2976
BOYM,4/1/16,342.4338118,0.330727086,342,343.5,2880,2880
BOYM,5/1/16,344.2720705,2.938399125,342.1,350.7,2976,2976
BOYM,6/1/16,350.0924294,0.835265401,349.1,352,2880,2880
BOYM,7/1/16,351.1545505,0.465825357,350.6,352.8,2975,2975
BOYM,8/1/16,351.2767155,0.400098115,350.8,353,2646,2646
BOYM,9/1/16,351.7964793,0.026488222,351.6,351.8,57,57
BOYM,11/1/16,352.2733656,3.052236691,347.9,354.8,1265,1265
BOYM,12/1/16,354.771243,0.116379226,354.5,355.3,2976,2976
BOYM,1/1/17,355.3058171,0.362091471,354.7,356,2976,2976
BOYM,2/1/17,355.6123565,0.200695728,355.2,356.1,2688,2688
BOYM,3/1/17,356.1729219,0.487089082,355.2,357.3,2976,2976
BOYM,4/1/17,356.4227805,0.253633628,355.9,357.7,2880,2880
BOYM,5/1/17,356.0877064,0.345928824,354.7,357.3,2976,2976
BOYM,6/1/17,355.6152839,0.297602389,355,356.6,2880,2880
BOYM,7/1/17,356.0035998,0.347742487,355.5,357.3,2976,2976
BOYM,8/1/17,358.5672063,3.279343177,355.4,365.7,2976,2976
BOYM,9/1/17,360.7982278,0.516438933,359.6,362.3,2880,2880
BOYM,10/1/17,370.3546386,6.42105336,361.1,386,2976,2976
BOYM,11/1/17,364.4416289,0.108198742,363.8,364.9,2414,2414
BOYM,12/1/17,364.6818674,5.648604024,364.3,568.7,1307,1307
BOYM,1/1/18,579.5798908,0.072772857,579.3,579.7,229,229
BOYM,2/1/18,579.9176196,0.221428235,579.3,580.6,2688,2688
BOYM,3/1/18,586.5175319,3.687795007,580.1,590.9,2976,2976
BOYM,4/1/18,586.140756,3.361808405,578.5,590.5,2880,2880
BOYM,5/1/18,583.7641824,0.494247128,582.8,585,2976,2976
BOYM,6/1/18,584.1638265,0.313617926,583.5,584.7,2880,2880
BOYM,7/1/18,589.6798809,6.364317784,583.5,601.1,2976,2976
BOYM,8/1/18,597.8604932,0.516182606,596.9,598.9,2976,2976
BOYM,9/1/18,598.7858347,0.419936368,597.9,599.9,2880,2880
BOYM,10/1/18,599.5591732,0.355360704,598.4,600.6,2976,2976
BOYM,11/1/18,605.2720367,15.58521773,598.9,652.8,2865,2865
BOYM,12/1/18,658.8869049,1.992494447,652.8,661.1,2976,2976
BOYM,1/1/19,660.4383858,0.226135988,659.9,661.1,2900,2900
BOYM,2/1/19,660.465929,0.250023229,659.7,661.1,2688,2688
BOYM,3/1/19,660.0399361,0.309312474,659.4,660.6,2976,2976
BOYM,4/1/19,660.6209497,0.82494964,659.4,662.1,2880,2880
BOYM,5/1/19,662.0477483,0.742016109,660.6,663.3,2976,2976
BOYM,6/1/19,663.479293,0.878005944,661.7,665.4,2880,2880
BOYM,7/1/19,665.0396094,0.872082088,652.5,667,2976,2976
BOYM,8/1/19,667.0962739,0.942050435,665,668.2,2976,2976
BOYM,9/1/19,667.3104233,0.426406774,666.5,668.5,2880,2880
BOYM,10/1/19,668.2123052,0.350429025,667.2,668.9,2976,2976
BOYM,11/1/19,677.8916076,7.376309607,668.2,684.3,2874,2874
BOYM,12/1/19,497.4364837,176.1756479,86.4,703,2976,2976
BOYM,1/1/20,345.5111573,3.837985839,336.7,349.4,2976,2976
BOYM,2/1/20,352.9553899,4.852109916,347.2,358.6,2784,2784
BOYM,3/1/20,359.5503028,0.681623879,357.9,362.8,2976,2976
BOYM,4/1/20,358.300592,1.586815789,355.7,361.9,2880,2880
BOYM,5/1/20,355.9350521,0.325701842,355.4,356.7,2976,2976
BOYM,6/1/20,355.4875043,0.667676943,353,356.6,2880,2880
BOYM,7/1/20,351.9019418,0.544316302,351.2,354.1,2976,2976
BOYM,8/1/20,353.9717746,0.711967641,351.8,357.3,2976,2976
BOYM,9/1/20,363.852531,1.019115606,357.1,365,2880,2880
BOYM,10/1/20,359.4684145,1.879293056,355,363.6,2976,2976
BOYM,11/1/20,351.3248976,2.947725311,345.9,355,2880,2880
BOYM,12/1/20,342.1671007,1.536383626,340.1,345.9,2976,2976
BOYM,1/1/21,343.7315172,3.811748482,339.7,351.9,2976,2976
BOYM,2/1/21,346.4788721,0.975642586,344.2,347.7,2688,2688
BOYM,3/1/21,353.0700281,3.232226827,347.2,356.9,2976,2976
BOYM,4/1/21,355.1131644,0.783178982,354.2,357.2,2880,2880
BOYM,5/1/21,356.8748342,0.458725735,355,357.9,2976,2976
BOYM,6/1/21,354.0382627,0.364541784,352.9,355.8,2880,2880
BOYM,7/1/21,353.0488873,0.740988382,351.8,354.7,2976,2976
BOYM,8/1/21,357.5667362,4.306765332,348.9,443.2,2976,2976
BOYM,9/1/21,356.8139629,1.342212518,355,361.2,2880,2880
BOYM,10/1/21,360.7306773,1.891145478,357.4,367.6,2976,2976
BOYM,11/1/21,354.5400362,2.377471881,350.1,357.9,2880,2880
BOYM,12/1/21,349.1380546,1.946453683,346.7,353.3,2951,2951
BOYM,1/1/22,348.7692539,0.41374438,346.9,349.6,2976,2976
BOYM,2/1/22,349.3350442,0.523620874,348.6,350.5,2688,2688
BOYM,3/1/22,350.5067854,0.621540526,349.4,354.3,2976,2976
BOYM,4/1/22,352.9487451,1.494197206,351.1,358.9,2880,2880
BOYM,5/1/22,355.311262,0.859593884,353.2,358,2976,2976
BOYM,6/1/22,353.2248572,0.72960449,352,355,2880,2880
BOYM,7/1/22,353.2880686,0.971602798,351.1,356.5,2976,2976
BOYM,8/1/22,350.1703267,0.659867837,349.1,353,2976,2976
BOYM,9/1/22,350.7659681,0.677110949,349.6,353.3,2880,2880
BOYM,10/1/22,350.8982815,0.472243128,350.1,355.1,2976,2976
BOYM,11/1/22,350.0874266,0.719281525,348.4,351.1,2880,2880
BOYM,12/1/22,349.0373156,0.282407913,348.4,349.8,619,619